Regional Weather Roundup
Issued by NWS

Home | Current Version | Previous Version | Text Only | Print | Product List | Glossary On
Versions: 1 2 3 4 5 6 7 8 9 10 11 12 13 14 15 16 17 18 19 20 21 22 23 24 25 26 27 28 29 30 31 32 33 34 35 36 37 38 39 40 41 42 43 44 45 46 47 48 49 50
000
ASUS45 KABQ 050610
RWRNM
NEW MEXICO REGIONAL WEATHER ROUNDUP
NATIONAL WEATHER SERVICE ALBUQUERQUE NM
1200 AM MDT SAT SEP 05 2015

NOTE: "FAIR" MEANS FEW OR NO CLOUDS BELOW 12,000 FEET AGL WITH NO
       SIGNIFICANT WEATHER OR OBSTRUCTIONS TO VISION.

      THIS PRODUCT IS RELEASED AS TWO VERSIONS.  ONE VERSION NEAR
      THE TOP OF THE HOUR CONTAINING PRELIMINARY DATA FROM ALBUQUERQUE
      AND OTHER STATIONS.  A FINAL VERSION WITH ADDITIONAL DATA IS
      ISSUED ABOUT 10 MINUTES AFTER THE HOUR.

NMZ501-503-504-510>518-050700-
NORTHWEST PLATEAU/NORTHCENTRAL MOUNTAINS

CITY           SKY/WX    TMP DP  RH WIND       PRES   REMARKS
FARMINGTON     CLOUDY    62  59  90 E7        30.11R
6HR MIN TEMP:  62; 6HR MAX TEMP:  71; 6HR PCP: TRACE;

LOS ALAMOS     CLOUDY    57  53  85 S3        30.25S
SANTA FE       CLOUDY    59  56  89 CALM      30.20F
6HR MIN TEMP:  59; 6HR MAX TEMP:  63; 6HR PCP:  0.03;

TAOS           CLOUDY    57  46  67 CALM      30.27S
ANGEL FIRE     CLOUDY    52  50  93 E5        30.30S

$$
NMZ402-403-502-505>509-050700-
WESTCENTRAL MOUNTAINS/SOUTHWEST MOUNTAINS

CITY           SKY/WX    TMP DP  RH WIND       PRES   REMARKS
GALLUP         CLOUDY    60  53  77 CALM      30.18S
6HR MIN TEMP:  59; 6HR MAX TEMP:  63; 6HR PCP:  0.01;

GRANTS         CLOUDY    58  56  92 SE6       30.22R
SILVER CITY      N/A     61  57  88 CALM      30.17F

$$
NMZ407-409-411-412-050700-
SOUTHERN DESERTS

CITY           SKY/WX    TMP DP  RH WIND       PRES   REMARKS
LORDSBURG      FAIR      64  63  94 SW6       30.08F
DEMING         CLOUDY    66  62  87 SW5       30.09F
6HR MIN TEMP:  65; 6HR MAX TEMP:  78; 6HR PCP:  0.05;

LAS CRUCES     CLOUDY    72  56  58 NW9       30.10S
HOLLOMAN AFB   CLOUDY    74  58  56 N12       30.03F
ALAMOGORDO     CLOUDY    75  57  53 NE10      30.05F
T OR C         CLOUDY    67  61  81 W5        30.11F
6HR MIN TEMP:  67; 6HR MAX TEMP:  76; 6HR PCP:  0.01;


$$
NMZ519>523-050700-
CENTRAL VALLEYS/CENTRAL HIGHLANDS

CITY           SKY/WX    TMP DP  RH WIND       PRES   REMARKS
ALBUQUERQUE    CLOUDY    64  59  83 E7        30.16S
6HR MIN TEMP:  64; 6HR MAX TEMP:  70; 6HR PCP:  0.02;

DOUBLE EAGLE   CLOUDY    60  59  96 NE3       30.18F
MORIARTY ARPT  CLOUDY    60  56  87 CALM      30.21F
6HR MIN TEMP:  60; 6HR MAX TEMP:  67;

CLINES CORNERS CLOUDY    59  52  77 W7        30.23F
6HR MIN TEMP:  59; 6HR MAX TEMP:  66; 6HR PCP: TRACE;

BELEN          MOCLDY    65  58  80 CALM      30.15S
6HR MIN TEMP:  64; 6HR MAX TEMP:  69;

SOCORRO        CLOUDY    66  60  82 NW5       30.13S
6HR MIN TEMP:  66; 6HR MAX TEMP:  72;


$$
NMZ524>526-539-540-050700-
SOUTHCENTRAL MOUNTAINS

CITY           SKY/WX    TMP DP  RH WIND       PRES   REMARKS
RUIDOSO        CLOUDY    63  54  72 SW7       30.27R

$$
NMZ527>531-050700-
NORTHEAST HIGHLANDS/NORTHEAST PLAINS

CITY           SKY/WX    TMP DP  RH WIND       PRES   REMARKS
LAS VEGAS      CLOUDY    62  49  62 SW12      30.22S
6HR MIN TEMP:  60; 6HR MAX TEMP:  66; 6HR PCP: TRACE;

RATON          CLOUDY    64  52  64 SW6       30.14F
6HR MIN TEMP:  63; 6HR MAX TEMP:  77; 6HR PCP: TRACE;

CLAYTON        MOCLDY    71  52  50 SW8       30.07R
6HR MIN TEMP:  71; 6HR MAX TEMP:  86;


$$
NMZ532>537-050700-
EASTCENTRAL PLAINS

CITY           SKY/WX    TMP DP  RH WIND       PRES   REMARKS
TUCUMCARI      MOCLDY    72  55  55 CALM      30.03S
6HR MIN TEMP:  72; 6HR MAX TEMP:  90;

CANNON AFB     MOCLDY    73  53  50 SW6       30.07R
6HR MIN TEMP:  71; 6HR MAX TEMP:  84;

CLOVIS AIRPORT PTCLDY    70  52  52 S3        30.07F

$$
NMZ028-029-538-050700-
SOUTHEAST PLAINS

CITY           SKY/WX    TMP DP  RH WIND       PRES   REMARKS
ROSWELL        CLEAR     76  54  46 NE5       30.01S
6HR MIN TEMP:  76; 6HR MAX TEMP:  93;

ARTESIA        CLEAR     73  50  43 S7        30.00S
CARLSBAD       CLEAR     78  51  38 S8        29.97S
6HR MIN TEMP:  77; 6HR MAX TEMP:  95;

HOBBS            N/A     72  54  53 SE6       30.03S


$$



USA.gov is the U.S. government's official web portal to all federal, state and local government web resources and services.